Location: Amherst
(42.3800°N, 72.5240°W)
Time: 02:22:12
(UTC-04:00)

ISS - Pass Details

Date: 26 May 2021
Orbit: 417 x 422 km, 51.6° (Epoch: 18 June)

Event Time Altitude Azimuth Distance (km) Brightness Sun altitude
Rises 23:15:06 0° 303° (WNW) 2,368 1.0 -22.8°
Reaches altitude 10° 23:17:12 10° 302° (WNW) 1,502 -0.2 -23.0°
Enters shadow 23:19:28 39° 297° (WNW) 643 -2.5 -23.1°
